[[{"header":{"parameterUnit":"m.s-1","parameterCategory":1,"la1":30.2991,"la2":30.254,"lo1":-89.0895,"lo2":-89.0444,"dy":0.0017,"dx":0.0017,"nx":28,"ny":28,"refTime":"2025-03-08T09:00:00:Z","depth":0,"parameterNumber":2,"parameterNumberName":"U-component_of_WINDS"},"data":[0,0,0,0,0,0,0,0,0,0,0,0,0,0,0,0,0,0,0,0,0,0,0,0,0,0,0,0,0,0,0,0,0,0,0,0,0,0,0,0,0,0,0,0,0,0,0,0,0,0,0,0,0,0,0,0,0,0,-5.3049,-5.3049,0,-5.3081,-5.3082,-5.3082,-5.2937,-5.2933,-5.2928,-5.2924,-5.2968,-5.2973,-5.2978,0,0,0,0,0,0,0,0,0,0,0,0,0,-5.2873,-5.2877,-5.3048,-5.3049,-5.3049,-5.3081,-5.3082,-5.3082,-5.2938,-5.2933,-5.2927,-5.2922,-5.2967,-5.2973,-5.2979,0,0,0,0,0,0,0,0,0,0,0,0,0,-5.2932,-5.2878,-5.3048,-5.2981,-5.2975,-5.3081,-5.3082,-5.3082,-5.2939,-5.2932,-5.2926,-5.292,-5.2965,-5.2972,-5.298,-5.3155,0,0,-5.3003,-5.3007,0,0,0,0,0,0,0,0,-5.2929,-5.2939,-5.299,-5.2986,-5.2979,-5.2998,-5.3035,-5.3107,-5.294,-5.2953,-5.2924,-5.2917,-5.2984,-5.299,-5.301,-5.3157,-5.3159,-5.3004,-5.3009,-5.3012,-5.3014,0,0,0,0,0,0,0,-5.2925,-5.2937,-5.3062,-5.2991,-5.2985,-5.2953,-5.2954,-5.3048,-5.3004,-5.2951,-5.2941,-5.2946,-5.298,-5.3003,-5.301,-5.316,-5.3004,-5.3011,-5.3015,-5.3018,-5.3456,-5.3462,0,0,0,0,0,0,-5.2928,-5.2934,-5.3061,-5.3063,-5.2938,-5.2961,-5.2963,-5.2999,-5.3003,-5.2997,-5.2952,-5.2939,-5.2993,-5.3001,-5.3011,-5.3217,-5.3012,-5.3019,-5.3023,-5.3449,-5.3457,-5.3465,0,0,0,0,0,0,-5.2925,-5.2941,-5.3059,-5.2995,-5.3008,-5.2971,-5.3013,-5.3003,-5.3025,-5.3003,-5.2995,-5.2983,-5.2988,-5.3,-5.312,-5.3217,-5.3022,-5.303,-5.344,-5.3451,-5.3461,-5.3632,0,0,0,0,0,0,-5.2921,-5.2941,-5.3004,-5.2998,-5.3012,-5.3165,-5.3019,-5.3008,-5.3038,-5.3022,-5.303,-5.3025,-5.2984,-5.311,-5.3128,-5.3224,-5.3036,-5.3431,-5.3445,-5.3458,-5.3617,-5.3647,-5.3672,0,0,0,0,0,-5.2915,-5.3052,-5.3008,-5.3024,-5.309,-5.317,-5.3179,-5.3126,-5.3046,-5.3112,-5.3098,-5.3025,-5.3204,-5.3123,-5.3143,-5.3243,-5.3425,-5.3441,-5.3457,-5.3605,-5.3641,-5.3671,0,0,0,0,0,0,-5.3073,-5.305,-5.3,-5.3139,-5.3158,-5.3145,-5.3225,-5.3165,-5.3209,-5.3193,-5.3129,-5.3132,-5.3264,-5.3266,-5.3176,-5.3414,-5.3301,-5.3322,-5.3407,-5.3441,-5.3468,-5.3465,-5.3042,0,0,0,0,0,-5.3124,-5.3187,-5.3165,-5.3291,-5.3302,-5.3263,-5.3296,-5.3254,-5.3272,-5.328,-5.3274,-5.3297,-5.3359,-5.3401,-5.3456,-5.3618,-5.3619,-5.3697,-5.3724,-5.3747,-5.3765,-5.3852,-5.3887,-5.3516,-5.3516,-5.3516,0,0,-5.3229,-5.3225,-5.3269,-5.3322,-5.3331,-5.3402,-5.327,-5.3351,-5.3404,-5.3293,-5.3404,-5.3403,-5.3424,-5.3566,-5.3629,-5.3572,-5.3868,-5.3767,-5.3785,-5.379,-5.3872,-5.3907,-5.3939,-5.3527,-5.3525,-5.3523,0,0,-5.3458,-5.3461,-5.3565,-5.3577,-5.3592,-5.3566,-5.3592,-5.359,-5.3583,-5.3693,-5.3612,-5.3677,-5.3784,-5.3803,-5.3827,-5.4068,-5.4004,-5.4089,-5.4231,-5.4317,-5.4346,-5.4372,-5.4458,-5.449,-5.4107,-5.4108,-5.4108,0,-5.3588,-5.3688,-5.3627,-5.3713,-5.374,-5.3641,-5.3749,-5.3765,-5.3799,-5.3822,-5.3757,-5.389,-5.3898,-5.4044,-5.4103,-5.4126,-5.4156,-5.4086,-5.4346,-5.4372,-5.4395,-5.4476,-5.4509,-5.4118,-5.4116,-5.4115,-5.4114,0,-5.3848,-5.3919,-5.4003,-5.4035,-5.4072,-5.4169,-5.4127,-5.4173,-5.4129,-5.4111,-5.4228,-5.4234,-5.429,-5.4322,-5.4281,-5.4464,-5.4428,-5.4357,-5.4241,-5.4441,-5.4517,-5.4548,-5.4132,-5.4128,-5.4125,-5.4123,0,0,-5.4173,-5.4172,-5.4204,-5.4218,-5.423,-5.4285,-5.4381,-5.4432,-5.4473,-5.4502,-5.4581,-5.4676,-5.461,-5.4638,-5.4599,-5.4675,-5.4867,-5.4594,-5.4594,-5.4644,-5.507,-5.5123,-5.5159,-5.4825,-5.4831,-5.4835,-5.5068,0,-5.4396,-5.4552,-5.4503,-5.4663,-5.473,-5.464,-5.4723,-5.4742,-5.4729,-5.4787,-5.4775,-5.4842,-5.475,-5.4767,-5.4838,-5.4828,-5.4951,-5.4811,-5.4901,-5.4905,-5.4896,-5.5199,-5.5254,-5.5473,-5.5097,-5.5102,-5.5106,0,-5.4676,-5.4713,-5.4879,-5.4881,-5.4908,-5.4983,-5.5027,-5.5083,-5.5105,-5.5091,-5.5123,-5.507,-5.5167,-5.5054,-5.5189,-5.5094,-5.5129,-5.5131,-5.5138,-5.5143,-5.5016,-5.5212,-5.5541,-5.5574,-5.5152,-5.5148,-5.5145,0,-5.4895,-5.4988,-5.5099,-5.5115,-5.5121,-5.5176,-5.5182,-5.5196,-5.5231,-5.5273,-5.5296,-5.535,-5.5379,-5.5424,-5.5388,-5.5308,-5.553,-5.5412,-5.5522,-5.5524,-5.5571,-5.5568,-5.591,-5.5596,-5.5596,-5.5595,-5.5595,0,-5.5149,-5.5254,-5.5198,-5.5267,-5.5384,-5.5329,-5.5448,-5.5444,-5.5459,-5.5528,-5.5456,-5.5523,-5.5472,-5.5537,-5.5511,-5.5627,-5.5642,-5.5635,-5.5626,-5.564,-5.5641,-5.566,-5.5644,-5.5604,-5.5602,-5.56,-5.5599,0,-5.5412,-5.5379,-5.5494,-5.5491,-5.5493,-5.558,-5.5578,-5.5644,-5.5627,-5.5716,-5.5734,-5.571,-5.5782,-5.5751,-5.5829,-5.5811,-5.5961,-5.5933,-5.5952,-5.5945,-5.6056,-5.6045,-5.6421,-5.6468,-5.6126,-5.6129,-5.6132,0,-5.5574,-5.5653,-5.5658,-5.5698,-5.5708,-5.5773,-5.5809,-5.576,-5.5801,-5.5833,-5.5896,-5.5962,-5.6011,-5.6132,-5.6123,-5.6183,-5.6156,-5.6284,-5.6164,-5.6177,-5.6157,-5.6152,-5.616,-5.6307,-5.6311,-5.6314,-5.6317,0,-5.5866,-5.5846,-5.5898,-5.5947,-5.599,-5.6027,-5.6057,-5.6095,-5.6048,-5.6099,-5.617,-5.6209,-5.6288,-5.6355,-5.6409,-5.6418,-5.6362,-5.6355,-5.6383,-5.6397,-5.6404,-5.6402,-5.6016,-5.6346,-5.6343,-5.634,-5.6339,-5.6338,-5.6083,-5.6149,-5.6163,-5.6225,-5.6243,-5.6274,-5.6335,-5.6327,-5.6385,-5.6443,-5.6413,-5.6497,-5.6521,-5.6586,-5.6605,-5.6673,-5.6623,-5.6665,-5.6675,-5.6685,-5.6699,-5.6396,-5.6683,-5.6682,-5.6681,-5.6681,-5.668,0,-5.637,-5.6375,-5.6433,-5.6477,-5.6527,-5.6467,-5.6499,-5.6545,-5.6619,-5.6645,-5.6695,-5.678,-5.6846,-5.6844,-5.6906,-5.6961,-5.6937,-5.6979,-5.6973,-5.6977,-5.6741,-5.6709,-5.6998,-5.6998,-5.6998,-5.6997,-5.6997,-5.6997,-5.6525,-5.6634,-5.6618,-5.6737,-5.6743,-5.6822,-5.6846,-5.6876,-5.6896,-5.6992,-5.7046,-5.7043,-5.7059,-5.7122,-5.7182,-5.718,-5.7206,-5.7258,-5.7247,-5.7025,-5.6994,-5.6963,-5.6933,-5.7264,-5.7265,-5.7477,-5.7479,-5.748]},{"header":{"parameterUnit":"m.s-1","parameterCategory":1,"la1":30.2991,"la2":30.254,"lo1":-89.0895,"lo2":-89.0444,"dy":0.0017,"dx":0.0017,"nx":28,"ny":28,"refTime":"2025-03-08T09:00:00:Z","depth":0,"parameterNumber":3,"parameterNumberName":"V-component_of_WINDS"},"data":[0,0,0,0,0,0,0,0,0,0,0,0,0,0,0,0,0,0,0,0,0,0,0,0,0,0,0,0,0,0,0,0,0,0,0,0,0,0,0,0,0,0,0,0,0,0,0,0,0,0,0,0,0,0,0,0,0,0,1.4803,1.4804,0,1.4866,1.4867,1.4868,1.4838,1.4836,1.4835,1.4833,1.49,1.4903,1.4906,0,0,0,0,0,0,0,0,0,0,0,0,0,1.466,1.4663,1.4803,1.4804,1.4805,1.4866,1.4867,1.4868,1.4838,1.4836,1.4834,1.4832,1.4899,1.4903,1.4907,0,0,0,0,0,0,0,0,0,0,0,0,0,1.4723,1.4664,1.4803,1.4797,1.4797,1.4866,1.4867,1.4868,1.4839,1.4836,1.4834,1.4831,1.4898,1.4902,1.4907,1.4986,0,0,1.4922,1.4924,0,0,0,0,0,0,0,0,1.4719,1.4728,1.4797,1.4798,1.4798,1.4842,1.4841,1.4908,1.4839,1.4823,1.4833,1.483,1.4883,1.4889,1.4906,1.4989,1.4992,1.4923,1.4926,1.4928,1.4929,0,0,0,0,0,0,0,1.4715,1.4725,1.4828,1.4798,1.4799,1.4793,1.4799,1.4854,1.4866,1.4824,1.4822,1.483,1.4882,1.4901,1.4907,1.4993,1.4923,1.4927,1.493,1.4932,1.5148,1.515,0,0,0,0,0,0,1.471,1.4722,1.4826,1.483,1.4752,1.4797,1.4804,1.483,1.4865,1.4868,1.4832,1.4828,1.4894,1.4902,1.4909,1.5006,1.4928,1.4932,1.4935,1.5145,1.5148,1.5151,0,0,0,0,0,0,1.4708,1.472,1.4824,1.4776,1.4788,1.4802,1.4832,1.4833,1.4851,1.4871,1.4873,1.4849,1.4892,1.4903,1.4968,1.5008,1.4935,1.4939,1.5142,1.5146,1.515,1.5198,0,0,0,0,0,0,1.4704,1.4719,1.4748,1.4776,1.4791,1.488,1.4834,1.4836,1.486,1.4856,1.4887,1.489,1.4891,1.4961,1.4973,1.5013,1.4943,1.5138,1.5144,1.5149,1.5193,1.5204,1.5212,0,0,0,0,0,1.4699,1.4759,1.475,1.4762,1.4827,1.4882,1.489,1.489,1.4863,1.4893,1.4906,1.4889,1.5002,1.4968,1.4981,1.5023,1.5136,1.5142,1.5148,1.5189,1.5202,1.5212,0,0,0,0,0,0,1.4735,1.4762,1.4752,1.4823,1.4851,1.4877,1.4914,1.4903,1.4939,1.4933,1.4932,1.494,1.5008,1.5022,1.4984,1.5103,1.5065,1.5074,1.5091,1.5103,1.5113,1.5108,1.4947,0,0,0,0,0,1.4751,1.4792,1.4815,1.4875,1.489,1.49,1.4924,1.4921,1.495,1.4961,1.4979,1.5008,1.505,1.5077,1.5117,1.5196,1.5203,1.5232,1.5241,1.5249,1.5257,1.5302,1.5316,1.5172,1.5172,1.5172,0,0,1.4785,1.4805,1.4831,1.4883,1.4904,1.4948,1.491,1.4957,1.4991,1.4968,1.5031,1.5046,1.5078,1.5151,1.5184,1.5165,1.5299,1.5257,1.5263,1.5267,1.531,1.5324,1.5336,1.5176,1.5175,1.5175,0,0,1.4869,1.4888,1.4942,1.4964,1.4996,1.5003,1.5016,1.5045,1.5054,1.5117,1.5102,1.5143,1.5214,1.5239,1.5261,1.5359,1.5345,1.5372,1.5422,1.5466,1.5477,1.5487,1.5523,1.5536,1.538,1.538,1.538,0,1.4907,1.4972,1.4971,1.5021,1.5045,1.5028,1.5083,1.5105,1.5149,1.5167,1.5145,1.5237,1.5258,1.5337,1.5361,1.5379,1.5395,1.5367,1.5475,1.5486,1.5495,1.553,1.5543,1.5383,1.5382,1.5382,1.5382,0,1.5019,1.5064,1.5104,1.5147,1.5176,1.5228,1.5237,1.5267,1.5263,1.5273,1.5339,1.5364,1.5409,1.5428,1.5424,1.5508,1.5495,1.5475,1.5436,1.5512,1.5544,1.5557,1.5387,1.5386,1.5385,1.5384,0,0,1.5125,1.5169,1.5184,1.5204,1.524,1.5276,1.5329,1.5374,1.54,1.5432,1.5477,1.554,1.5522,1.5547,1.5547,1.5585,1.5663,1.556,1.5561,1.5579,1.5759,1.5775,1.579,1.5655,1.5657,1.5659,1.5757,0,1.5213,1.5304,1.5306,1.5391,1.5435,1.5421,1.5467,1.5495,1.5507,1.5547,1.556,1.5605,1.5577,1.5593,1.563,1.5646,1.57,1.5639,1.5698,1.5701,1.5691,1.5807,1.5823,1.5913,1.577,1.5772,1.5773,0,1.5326,1.5363,1.5452,1.5484,1.5502,1.5544,1.5586,1.5624,1.5657,1.5663,1.5693,1.5687,1.5743,1.5704,1.5782,1.5741,1.5766,1.5778,1.5781,1.5787,1.5741,1.5816,1.5942,1.5956,1.5793,1.5791,1.579,0,1.5397,1.5468,1.5531,1.5549,1.5588,1.5618,1.5636,1.5666,1.5693,1.5731,1.5749,1.5793,1.5817,1.5852,1.586,1.583,1.5939,1.5899,1.5947,1.5947,1.597,1.5969,1.6102,1.5986,1.5986,1.5985,1.5985,0,1.5494,1.555,1.5563,1.5602,1.5665,1.5668,1.573,1.5746,1.5774,1.5817,1.5808,1.5849,1.5856,1.5899,1.5905,1.597,1.5981,1.5989,1.599,1.599,1.5989,1.6006,1.6,1.5989,1.5988,1.5987,1.5987,0,1.5583,1.5594,1.5662,1.5694,1.5704,1.5749,1.5777,1.5815,1.5827,1.5882,1.5895,1.5914,1.5964,1.5975,1.6035,1.6039,1.6117,1.6112,1.6106,1.6106,1.6153,1.6149,1.6303,1.6324,1.6193,1.6194,1.6195,0,1.5644,1.5687,1.5724,1.5752,1.5772,1.5817,1.5845,1.5851,1.5882,1.5924,1.5958,1.6008,1.6047,1.6129,1.6149,1.6195,1.6192,1.6242,1.6198,1.6198,1.6194,1.6191,1.6196,1.6251,1.6252,1.6253,1.6254,0,1.5753,1.5757,1.5798,1.5842,1.5877,1.5912,1.5945,1.5969,1.598,1.6015,1.6067,1.6098,1.616,1.621,1.6257,1.6277,1.6269,1.6268,1.6282,1.6282,1.6278,1.6282,1.613,1.6264,1.6263,1.6263,1.6262,1.6262,1.583,1.5868,1.5901,1.5948,1.5975,1.6007,1.6045,1.6063,1.6106,1.6156,1.6158,1.6215,1.6249,1.6312,1.6335,1.6381,1.6365,1.6384,1.639,1.6394,1.6399,1.627,1.6389,1.6389,1.6389,1.6388,1.6388,0,1.5939,1.5961,1.6004,1.6052,1.609,1.6078,1.6116,1.6148,1.6198,1.6231,1.6271,1.6332,1.6382,1.6406,1.6456,1.6488,1.6485,1.6501,1.6498,1.6504,1.641,1.6393,1.6502,1.6502,1.6502,1.6502,1.6502,1.6502,1.6001,1.6065,1.6074,1.6153,1.6174,1.6229,1.6252,1.6283,1.6309,1.6378,1.6419,1.6434,1.6465,1.6517,1.6562,1.6569,1.6588,1.6605,1.661,1.6521,1.651,1.6499,1.6484,1.6609,1.6609,1.67,1.6701,1.6701]}]]